Find DirecTV 1R

NORAD ID: 25937 Int'l Des: 1999-056 Owner: DTV Country: US operational
HEOCIRCULAR

Live Position

Loading 3D Globe...

About DirecTV 1R

Description loading...

Upcoming Passes

Passes for default location (London). Set your location on the main map for personalized predictions.

Altitude History

Loading altitude history...

Two-Line Element Set

1 25937U 99056A 26110.27867685 -.00000165 00000-0 00000+0 0 9996
2 25937 10.5414 49.0404 0004890 274.6517 284.2296 0.98960444 96649
Epoch: Apr 20, 2026 • Age: 16 hours

Current Status

Altitude 36176.9 km
Velocity 3.06 km/s
Sub-Earth Point 10.26°N, 64.12°W
Launch Date Oct 10, 1999
Age 26.5 years
Type other

Technical Details

Classification Payload
Mass 3447.00 kg
Dry Mass 1800.00 kg
Total Mass 3447.00 kg
Length 4.00 m
Diameter 2.70 m
Span 26.00 m
Shape Box + 2 Pan
Manufacturer HSES
Bus Type HS-601HP
Phase Status Unknown Transfer Status
Owner/State DTV/US

Most Searched